Tracking 19212 objects as of 16-Jul-2018
HD Live streaming from Space Station
objects crossing your sky now

FENGYUN 1C DEB

Track FENGYUN 1C DEB now!
10-day predictions


NORAD ID: 30557
Int'l Code: 1999-025AKX
Perigee: 844.2 km
Apogee: 952.0 km
Inclination: 99.1 °
Period: 102.8 minutes
Semi major axis: 7269 km
RCS: 0.043 m2 (small)
Launch date: May 10, 1999
Source: People's Republic of China (PRC)
Launch site: Taiyaun Space Center, China (TSC)

Note: This is SATELLITE DEBRIS
aabbcc
Your satellite tracking list
Your tracking list is empty




NASA's NSSDC Master Catalog

Two Line Element Set (TLE):
1 30557U 99025AKX 18196.60008024 +.00000745 +00000-0 +51635-3 0  9999
2 30557 099.1062 248.5855 0074144 191.7207 333.0786 14.00821763583214
Source of the keplerian elements: AFSPC